Simultaneous Nadir Overpasses (SNOs) Predictions

Prediction of SNOs between AQUA and NPP Satellite Orbit:

Table of predicted SNOs for the next 14.0 days since TLE Epoch: 12/27/2019
Index Date (AQUA) Time (AQUA) Lat,Lon (AQUA) SZA (AQUA ) Date (NPP) Time (NPP) Lat,Lon (NPP) SZA (NPP ) Distance(km) Time Diff (sec)
1 12/29/2019 21:48:43 75.41, 90.16 120.57 12/29/2019 21:47:37 75.41, 90.18 120.63 0.48 66
2 12/29/2019 22:37:51 -76.34, -99.38 60.45 12/29/2019 22:38:03 -76.33, -99.45 60.44 2.09 12
3 01/01/2020 14:05:07 75.66,-153.25 120.19 01/01/2020 14:04:25 75.65,-153.28 120.24 0.93 42
4 01/01/2020 14:54:08 -76.91, 18.49 61.21 01/01/2020 14:54:43 -76.92, 18.58 61.26 2.37 35
5 01/04/2020 06:21:29 76.00, -36.34 119.65 01/04/2020 06:21:11 75.99, -36.40 119.68 1.77 18
6 01/04/2020 07:10:33 -77.10, 135.07 61.60 01/04/2020 07:11:32 -77.11, 135.12 61.66 1.40 59
7 01/06/2020 21:48:44 -75.36, -89.96 59.88 01/06/2020 21:47:33 -75.36, -89.95 59.82 0.27 71
8 01/06/2020 22:37:51 76.28, 80.43 119.12 01/06/2020 22:37:57 76.27, 80.36 119.13 2.08 6
9 01/09/2020 14:05:06 -75.70, 26.88 60.53 01/09/2020 14:04:19 -75.70, 26.87 60.48 0.23 47




NCC Satellite Simultaneous Nadir Overpasses (SNOs) Prediction Service
